• Em Portugal
  • Lista de países
  • Para 7 dias
  • Temperatura da água
  • Mapas de satélite
  • Mapa do tempo
  • Widgets de tempo
  • user-avatar
    Iniciar Sessão

    Previsão horária em Kahramanmaras

    Hoje, 20 Setembro, Quinta-feira

    Tempo Temperatura Precipitação Vento Pressão Humidade
    00:00 +19°C° 0 mm 2 m/s 661 mmHg 41%
    01:00 +19°C° 0 mm 2 m/s 661 mmHg 40%
    02:00 +19°C° 0 mm 2 m/s 660 mmHg 40%
    03:00 +18°C° 0 mm 2 m/s 660 mmHg 40%
    04:00 +18°C° 0 mm 2 m/s 660 mmHg 40%
    05:00 +18°C° 0 mm 2 m/s 660 mmHg 40%
    06:00 +20°C° 0 mm 2 m/s 661 mmHg 35%
    07:00 +23°C° 0 mm 1 m/s 662 mmHg 30%
    08:00 +25°C° 0 mm 1 m/s 662 mmHg 25%
    09:00 +26°C° 0 mm 1 m/s 663 mmHg 23%
    10:00 +28°C° 0 mm 2 m/s 663 mmHg 20%
    11:00 +29°C° 0 mm 2 m/s 663 mmHg 18%
    12:00 +30°C° 0 mm 2 m/s 663 mmHg 18%
    13:00 +30°C° 0 mm 3 m/s 663 mmHg 18%
    14:00 +30°C° 0 mm 3 m/s 663 mmHg 18%
    15:00 +29°C° 0 mm 3 m/s 662 mmHg 22%
    16:00 +28°C° 0 mm 3 m/s 662 mmHg 26%
    17:00 +27°C° 0 mm 3 m/s 661 mmHg 30%
    18:00 +25°C° 0 mm 2 m/s 661 mmHg 38%
    19:00 +23°C° 0 mm 2 m/s 661 mmHg 46%
    20:00 +21°C° 0 mm 1 m/s 660 mmHg 53%
    21:00 +21°C° 0 mm 1 m/s 660 mmHg 56%
    22:00 +20°C° 0 mm 1 m/s 660 mmHg 59%
    23:00 +20°C° 0 mm 1 m/s 660 mmHg 62%

    Amanhã, 21 Setembro, Sexta-feira

    Tempo Temperatura Precipitação Vento Pressão Humidade
    00:00 +19°C° 0 mm 1 m/s 660 mmHg 62%
    01:00 +19°C° 0 mm 1 m/s 660 mmHg 62%
    02:00 +19°C° 0 mm 1 m/s 660 mmHg 62%
    03:00 +18°C° 0 mm 1 m/s 660 mmHg 61%
    04:00 +18°C° 0 mm 1 m/s 659 mmHg 60%
    05:00 +18°C° 0 mm 1 m/s 659 mmHg 59%
    06:00 +20°C° 0 mm 1 m/s 660 mmHg 52%
    07:00 +22°C° 0 mm 1 m/s 661 mmHg 45%
    08:00 +24°C° 0 mm 1 m/s 662 mmHg 38%
    09:00 +25°C° 0 mm 1 m/s 662 mmHg 34%
    10:00 +26°C° 0 mm 2 m/s 662 mmHg 30%
    11:00 +28°C° 0 mm 2 m/s 663 mmHg 26%
    12:00 +28°C° 0 mm 2 m/s 662 mmHg 26%
    13:00 +29°C° 0 mm 3 m/s 662 mmHg 25%
    14:00 +29°C° 0 mm 3 m/s 662 mmHg 25%
    15:00 +28°C° 0 mm 3 m/s 662 mmHg 29%
    16:00 +27°C° 0 mm 3 m/s 661 mmHg 34%
    17:00 +26°C° 0 mm 3 m/s 661 mmHg 39%
    18:00 +24°C° 0.2 mm 2 m/s 661 mmHg 47%
    19:00 +21°C° 0.2 mm 2 m/s 661 mmHg 55%
    20:00 +20°C° 0.2 mm 1 m/s 661 mmHg 63%
    21:00 +20°C° 0 mm 1 m/s 661 mmHg 64%
    22:00 +20°C° 0 mm 1 m/s 661 mmHg 64%
    23:00 +19°C° 0 mm 1 m/s 661 mmHg 65%

    Depois de amanhã, 22 Setembro, Sábado

    Tempo Temperatura Precipitação Vento Pressão Humidade
    00:00 +19°C° 0 mm 1 m/s 661 mmHg 64%
    01:00 +19°C° 0 mm 1 m/s 661 mmHg 63%
    02:00 +18°C° 0 mm 1 m/s 660 mmHg 61%
    03:00 +18°C° 0 mm 1 m/s 660 mmHg 61%
    04:00 +18°C° 0 mm 1 m/s 660 mmHg 60%
    05:00 +18°C° 0 mm 1 m/s 660 mmHg 59%
    06:00 +20°C° 0 mm 1 m/s 661 mmHg 52%
    07:00 +22°C° 0 mm 1 m/s 662 mmHg 45%
    08:00 +24°C° 0 mm 1 m/s 663 mmHg 38%
    09:00 +25°C° 0 mm 1 m/s 663 mmHg 33%
    10:00 +27°C° 0 mm 1 m/s 663 mmHg 27%
    11:00 +28°C° 0 mm 1 m/s 663 mmHg 22%
    12:00 +29°C° 0 mm 2 m/s 663 mmHg 21%
    13:00 +29°C° 0 mm 2 m/s 663 mmHg 20%
    14:00 +30°C° 0 mm 2 m/s 663 mmHg 20%
    15:00 +29°C° 0 mm 2 m/s 662 mmHg 24%
    16:00 +28°C° 0 mm 3 m/s 662 mmHg 28%
    17:00 +26°C° 0 mm 3 m/s 662 mmHg 32%
    18:00 +25°C° 0 mm 2 m/s 661 mmHg 40%
    19:00 +23°C° 0 mm 2 m/s 661 mmHg 49%
    20:00 +21°C° 0 mm 1 m/s 661 mmHg 57%
    21:00 +20°C° 0 mm 1 m/s 661 mmHg 59%
    22:00 +20°C° 0 mm 1 m/s 661 mmHg 60%
    23:00 +19°C° 0 mm 1 m/s 661 mmHg 62%

    23 Setembro, Domingo

    Tempo Temperatura Precipitação Vento Pressão Humidade
    00:00 +19°C° 0 mm 1 m/s 661 mmHg 60%
    01:00 +19°C° 0 mm 1 m/s 661 mmHg 58%
    02:00 +17°C° 0 mm 2 m/s 661 mmHg 56%
    03:00 +17°C° 0 mm 2 m/s 661 mmHg 54%
    04:00 +17°C° 0 mm 2 m/s 661 mmHg 52%
    05:00 +17°C° 0 mm 2 m/s 661 mmHg 51%
    06:00 +19°C° 0 mm 2 m/s 661 mmHg 44%
    07:00 +21°C° 0 mm 2 m/s 662 mmHg 38%
    08:00 +24°C° 0 mm 2 m/s 663 mmHg 31%
    09:00 +26°C° 0 mm 2 m/s 663 mmHg 27%
    10:00 +27°C° 0 mm 2 m/s 664 mmHg 22%
    11:00 +29°C° 0 mm 2 m/s 664 mmHg 18%
    12:00 +29°C° 0 mm 2 m/s 664 mmHg 17%
    13:00 +30°C° 0 mm 3 m/s 663 mmHg 17%
    14:00 +30°C° 0 mm 3 m/s 663 mmHg 16%
    15:00 +29°C° 0 mm 3 m/s 663 mmHg 21%
    16:00 +28°C° 0 mm 3 m/s 663 mmHg 25%
    17:00 +26°C° 0 mm 3 m/s 662 mmHg 30%
    18:00 +25°C° 0 mm 2 m/s 662 mmHg 37%
    19:00 +23°C° 0 mm 2 m/s 662 mmHg 44%
    20:00 +20°C° 0 mm 2 m/s 662 mmHg 52%
    21:00 +20°C° 0 mm 2 m/s 662 mmHg 51%
    22:00 +19°C° 0 mm 2 m/s 662 mmHg 51%
    23:00 +19°C° 0 mm 2 m/s 662 mmHg 51%

    24 Setembro, Segunda-feira

    Tempo Temperatura Precipitação Vento Pressão Humidade
    00:00 +18°C° 0 mm 2 m/s 662 mmHg 49%
    01:00 +18°C° 0 mm 2 m/s 662 mmHg 47%
    02:00 +17°C° 0 mm 2 m/s 661 mmHg 46%
    03:00 +17°C° 0 mm 2 m/s 661 mmHg 44%
    04:00 +16°C° 0 mm 2 m/s 661 mmHg 42%
    05:00 +16°C° 0 mm 2 m/s 661 mmHg 40%
    06:00 +18°C° 0 mm 2 m/s 662 mmHg 33%
    07:00 +21°C° 0 mm 2 m/s 662 mmHg 26%
    08:00 +24°C° 0 mm 2 m/s 663 mmHg 19%
    09:00 +26°C° 0 mm 2 m/s 663 mmHg 16%
    10:00 +27°C° 0 mm 1 m/s 664 mmHg 13%
    11:00 +29°C° 0 mm 1 m/s 664 mmHg 10%
    12:00 +30°C° 0 mm 1 m/s 663 mmHg 9%
    13:00 +30°C° 0 mm 2 m/s 663 mmHg 9%
    14:00 +31°C° 0 mm 2 m/s 663 mmHg 9%
    15:00 +29°C° 0 mm 2 m/s 662 mmHg 11%
    16:00 +28°C° 0 mm 2 m/s 662 mmHg 13%
    17:00 +26°C° 0 mm 2 m/s 661 mmHg 16%
    18:00 +25°C° 0 mm 1 m/s 661 mmHg 20%
    19:00 +23°C° 0 mm 1 m/s 661 mmHg 24%
    20:00 +21°C° 0 mm 1 m/s 660 mmHg 28%
    21:00 +20°C° 0 mm 1 m/s 660 mmHg 30%
    22:00 +20°C° 0 mm 1 m/s 660 mmHg 32%
    23:00 +19°C° 0 mm 1 m/s 660 mmHg 34%

    25 Setembro, Terça-feira

    Tempo Temperatura Precipitação Vento Pressão Humidade
    00:00 +19°C° 0 mm 1 m/s 660 mmHg 35%
    01:00 +18°C° 0 mm 1 m/s 659 mmHg 35%
    02:00 +18°C° 0 mm 1 m/s 659 mmHg 36%
    03:00 +18°C° 0 mm 1 m/s 659 mmHg 36%
    04:00 +16°C° 0 mm 1 m/s 659 mmHg 36%
    05:00 +16°C° 0 mm 1 m/s 659 mmHg 35%
    06:00 +20°C° 0 mm 1 m/s 660 mmHg 31%
    07:00 +20°C° 0 mm 0 m/s 661 mmHg 26%
    08:00 +23°C° 0 mm 0 m/s 661 mmHg 21%
    09:00 +26°C° 0 mm 1 m/s 662 mmHg 19%
    10:00 +28°C° 0 mm 1 m/s 662 mmHg 16%
    11:00 +29°C° 0 mm 2 m/s 662 mmHg 14%
    12:00 +29°C° 0 mm 2 m/s 662 mmHg 14%
    13:00 +30°C° 0 mm 3 m/s 661 mmHg 14%
    14:00 +30°C° 0 mm 3 m/s 661 mmHg 14%
    15:00 +29°C° 0 mm 3 m/s 660 mmHg 17%
    16:00 +27°C° 0 mm 3 m/s 660 mmHg 21%
    17:00 +26°C° 0 mm 2 m/s 659 mmHg 24%
    18:00 +24°C° 0 mm 2 m/s 659 mmHg 30%
    19:00 +21°C° 0 mm 2 m/s 659 mmHg 35%
    20:00 +20°C° 0 mm 1 m/s 659 mmHg 41%
    21:00 +20°C° 0 mm 1 m/s 658 mmHg 43%
    22:00 +19°C° 0 mm 1 m/s 658 mmHg 45%
    23:00 +19°C° 0 mm 1 m/s 658 mmHg 47%
    Mostrar mais